Change the Weather History Date:

Sunday, November 17, 2013

  Actual Average Record
Temperature  
Mean Temperature 50 °F 44 °F  
Max Temperature 55 °F 50 °F 60 °F (2008)
Min Temperature 44 °F 38 °F 24 °F (2014)
Degree Days  
Heating Degree Days 15 21  
Month to date heating degree days 256 334  
Since 1 July heating degree days 935 1424  
Cooling Degree Days 0 0  
Month to date cooling degree days 0 0  
Year to date cooling degree days 39 19  
Moisture  
Dew Point 44 °F    
Average Humidity 82    
Maximum Humidity 93    
Minimum Humidity 71    
Precipitation  
Precipitation 0.41 in 0.53 in 1.94 in (1995)
Month to date precipitation 5.72 8.62  
Year to date precipitation 80.28 79.65  
Sea Level Pressure  
Sea Level Pressure 29.81 in    
Wind  
Wind Speed 3 mph (SSW)    
Max Wind Speed 13 mph    
Max Gust Speed 18 mph    
Visibility 4 miles    
Events Rain    
T = Trace of Precipitation, MM = Missing Value Source: NWS Daily Summary

Daily Weather History Graph

Daily Weather History Graph

Search for Another Location

Airport or City:

Trip Planner

Search our weather history database for the weather conditions in past years. The results will help you decide how hot, cold, wet, or windy it might be!

Date:

Astronomy

Nov. 17, 2013 Rise Set
Actual Time 7:27 AM PST 4:38 PM PST
Civil Twilight 6:53 AM PST 5:12 PM PST
Nautical Twilight 6:15 AM PST 5:50 PM PST
Astronomical Twilight 5:39 AM PST 6:26 PM PST
Moon 4:59 PM PST (11/17) 7:26 AM PST (11/17)
Length of Visible Light 10h 18m
Length of Day
9h 10m
Full, 100% of the Moon is Illuminated
Nov 17
Full
Nov 25
Last Quarter
Dec 2
New
Dec 9
First Quarter
Dec 17
Full

Hourly Weather History & Observations

Time (PST) Temp. Windchill Dew Point Humidity Pressure Visibility Wind Dir Wind Speed Gust Speed Precip Events Conditions
12:29 AM 44.6 °F - 39.2 °F 81% 29.77 in 7.0 mi Calm Calm - 0.00 in   Overcast
12:43 AM 44.6 °F - 39.2 °F 81% 29.77 in 7.0 mi Calm Calm - 0.00 in   Overcast
12:53 AM 44.1 °F - 39.9 °F 85% 29.77 in 7.0 mi Calm Calm - 0.00 in   Overcast
1:24 AM 44.6 °F 43.1 °F 39.2 °F 81% 29.77 in 2.5 mi SW 3.5 mph - 0.00 in Rain Rain
1:32 AM 44.6 °F 43.1 °F 39.2 °F 81% 29.76 in 1.5 mi ENE 3.5 mph - 0.05 in Rain Heavy Rain
1:35 AM 44.6 °F 43.1 °F 39.2 °F 81% 29.76 in 2.0 mi ENE 3.5 mph - 0.07 in Rain Rain
1:53 AM 44.1 °F - 41.0 °F 89% 29.78 in 4.0 mi Calm Calm - 0.11 in Rain Light Rain
2:23 AM 44.6 °F - 41.0 °F 87% 29.77 in 6.0 mi Calm Calm - 0.00 in   Overcast
2:53 AM 45.0 °F 43.5 °F 41.0 °F 86% 29.78 in 6.0 mi Variable 3.5 mph - 0.00 in Rain Light Rain
3:46 AM 44.6 °F - 42.8 °F 93% 29.77 in 6.0 mi Calm Calm - 0.01 in   Overcast
3:53 AM 46.0 °F - 42.1 °F 86% 29.78 in 6.0 mi Calm Calm - 0.01 in   Overcast
4:53 AM 46.9 °F - 44.1 °F 90% 29.78 in 4.0 mi South 5.8 mph - 0.01 in Rain Light Rain
5:01 AM 46.4 °F 43.5 °F 44.6 °F 93% 29.77 in 3.0 mi Variable 5.8 mph - 0.00 in Rain Light Rain
5:09 AM 46.4 °F 44.3 °F 44.6 °F 93% 29.77 in 2.5 mi Variable 4.6 mph - 0.02 in Rain Rain
5:21 AM 46.4 °F 45.2 °F 44.6 °F 93% 29.77 in 5.0 mi Variable 3.5 mph - 0.02 in Rain Light Rain
5:53 AM 46.9 °F - 44.1 °F 90% 29.77 in 4.0 mi Calm Calm - 0.04 in Rain Light Rain
6:06 AM 46.4 °F - 44.6 °F 93% 29.77 in 2.5 mi Calm Calm - 0.01 in Rain Light Rain
6:34 AM 46.4 °F 44.3 °F 44.6 °F 93% 29.77 in 1.8 mi Variable 4.6 mph - 0.06 in Rain Rain
6:38 AM 46.4 °F 45.2 °F 44.6 °F 93% 29.77 in 2.0 mi SE 3.5 mph - 0.06 in Rain Light Rain
6:46 AM 46.4 °F - 44.6 °F 93% 29.77 in 4.0 mi Calm Calm - 0.07 in Rain Light Rain
6:53 AM 46.9 °F - 44.1 °F 90% 29.78 in 4.0 mi Calm Calm - 0.07 in Rain Light Rain
6:57 AM 46.4 °F - 44.6 °F 93% 29.77 in 3.0 mi Calm Calm - 0.00 in Rain Light Rain
7:08 AM 46.4 °F 44.3 °F 44.6 °F 93% 29.77 in 3.0 mi ESE 4.6 mph - 0.01 in Rain Light Rain
7:28 AM 46.4 °F 45.2 °F 44.6 °F 93% 29.77 in 3.0 mi ESE 3.5 mph - 0.03 in Rain Rain
7:33 AM 46.4 °F 45.2 °F 42.8 °F 87% 29.77 in 3.0 mi ESE 3.5 mph - 0.04 in Rain Rain
7:53 AM 46.9 °F - 44.1 °F 90% 29.79 in 2.5 mi SW 4.6 mph - 0.08 in Rain Rain
8:09 AM 48.2 °F - 44.6 °F 87% 29.79 in 4.0 mi Calm Calm - 0.01 in Rain Light Rain
8:23 AM 48.2 °F - 44.6 °F 87% 29.79 in 5.0 mi Calm Calm - 0.01 in   Overcast
8:43 AM 48.2 °F - 44.6 °F 87% 29.80 in 2.0 mi SSW 3.5 mph - 0.01 in Rain Light Rain
8:51 AM 48.2 °F - 46.4 °F 93% 29.80 in 1.8 mi South 3.5 mph - 0.01 in Rain Light Rain
8:53 AM 48.9 °F - 46.0 °F 90% 29.80 in 2.0 mi South 3.5 mph - 0.02 in Rain Light Rain
9:04 AM 48.2 °F - 46.4 °F 93% 29.80 in 4.0 mi Calm Calm - 0.00 in Rain Light Rain
9:53 AM 50.0 °F - 46.9 °F 89% 29.82 in 5.0 mi South 3.5 mph - 0.00 in   Overcast
10:40 AM 51.8 °F - 46.4 °F 82% 29.83 in 5.0 mi South 5.8 mph - N/A   Overcast
10:48 AM 51.8 °F - 48.2 °F 88% 29.83 in 5.0 mi South 3.5 mph - N/A   Overcast
10:53 AM 51.1 °F - 48.0 °F 89% 29.83 in 5.0 mi South 3.5 mph - N/A   Overcast
11:28 AM 53.6 °F - 48.2 °F 82% 29.82 in 6.0 mi South 4.6 mph - N/A   Overcast
11:53 AM 52.0 °F - 46.9 °F 83% 29.83 in 5.0 mi SSW 6.9 mph - N/A   Haze
12:53 PM 54.0 °F - 46.9 °F 77% 29.83 in 6.0 mi SSW 8.1 mph - N/A   Haze
1:53 PM 54.0 °F - 45.0 °F 72% 29.83 in 6.0 mi SSW 8.1 mph - N/A   Haze
2:47 PM 51.8 °F - 46.4 °F 82% 29.83 in 2.5 mi SSW 9.2 mph - 0.00 in Rain Light Rain
2:53 PM 51.1 °F - 46.9 °F 86% 29.84 in 1.8 mi SW 9.2 mph - 0.02 in Rain Light Rain
3:01 PM 50.0 °F - 44.6 °F 82% 29.84 in 1.8 mi WSW 10.4 mph - 0.01 in Rain Light Rain
3:09 PM 50.0 °F - 46.4 °F 87% 29.84 in 3.0 mi WSW 5.8 mph - 0.02 in Rain Light Rain
3:19 PM 50.0 °F - 46.4 °F 87% 29.84 in 4.0 mi SW 5.8 mph - 0.02 in   Mostly Cloudy
3:53 PM 50.0 °F - 46.0 °F 86% 29.85 in 4.0 mi SW 4.6 mph - 0.02 in   Overcast
4:46 PM 48.2 °F - 44.6 °F 87% 29.85 in 2.5 mi SW 10.4 mph - 0.02 in Rain Light Rain
4:53 PM 48.9 °F - 45.0 °F 86% 29.86 in 5.0 mi WSW 5.8 mph - 0.02 in Rain Light Rain
5:53 PM 48.9 °F - 44.1 °F 83% 29.87 in 6.0 mi SSW 3.5 mph - 0.00 in   Haze
6:53 PM 48.0 °F - 45.0 °F 89% 29.86 in 6.0 mi SSE 3.5 mph - N/A   Overcast
7:53 PM 48.0 °F - 44.1 °F 86% 29.87 in 6.0 mi SSE 3.5 mph - 0.01 in   Overcast
8:23 PM 48.2 °F - 44.6 °F 87% 29.87 in 4.0 mi SE 3.5 mph - 0.00 in Rain Light Rain
8:30 PM 48.2 °F - 44.6 °F 87% 29.87 in 5.0 mi Calm Calm - 0.00 in Rain Light Rain
8:53 PM 48.0 °F - 45.0 °F 89% 29.87 in 5.0 mi Calm Calm - 0.00 in   Overcast
9:23 PM 48.2 °F - 44.6 °F 87% 29.88 in 6.0 mi Calm Calm - N/A   Overcast
9:53 PM 48.9 °F - 46.0 °F 90% 29.88 in 6.0 mi Calm Calm - N/A   Overcast
10:03 PM 48.2 °F - 44.6 °F 87% 29.88 in 6.0 mi SSW 3.5 mph - N/A   Overcast
10:10 PM 48.2 °F - 44.6 °F 87% 29.88 in 6.0 mi Calm Calm - N/A   Overcast
10:53 PM 48.9 °F - 45.0 °F 86% 29.88 in 6.0 mi Calm Calm - N/A   Overcast
11:48 PM 48.2 °F - 44.6 °F 87% 29.89 in 7.0 mi WSW 4.6 mph - 0.00 in   Overcast
11:53 PM 48.9 °F - 44.1 °F 83% 29.89 in 7.0 mi West 3.5 mph - 0.00 in   Overcast